Time,TemperatureF,DewpointF,PressureIn,WindDirection,WindDirectionDegrees,WindSpeedMPH,WindSpeedGustMPH,Humidity,HourlyPrecipIn,Conditions,Clouds,dailyrainin,SolarRadiationWatts/m^2,SoftwareType,DateUTC
2013-05-21 00:03:00,53.0,53.0,-100.00,SE,135,2.0,4.0,100,0.00,,,0.34,0.000000,,2013-05-21 04:03:00,
2013-05-21 00:13:00,53.0,53.0,-100.00,SE,135,2.0,4.0,100,0.00,,,0.34,0.000000,,2013-05-21 04:13:00,
2013-05-21 00:23:00,53.0,53.0,-100.00,SE,135,2.0,4.0,100,0.00,,,0.34,0.000000,,2013-05-21 04:23:00,
2013-05-21 00:53:00,52.0,52.0,-100.00,ESE,117,2.0,3.0,100,0.00,,,0.29,0.000000,,2013-05-21 04:53:00,
2013-05-21 01:02:00,52.0,52.0,-100.00,ESE,117,2.0,3.0,100,0.00,,,0.29,0.000000,,2013-05-21 05:02:00,
2013-05-21 01:12:00,52.0,52.0,-100.00,ESE,117,2.0,3.0,100,0.00,,,0.29,0.000000,,2013-05-21 05:12:00,
2013-05-21 01:22:00,52.0,52.0,-100.00,ESE,117,2.0,3.0,100,0.00,,,0.29,0.000000,,2013-05-21 05:22:00,
2013-05-21 01:52:00,52.0,52.0,-100.00,NNE,30,1.0,3.0,100,0.00,,,0.26,0.000000,,2013-05-21 05:52:00,
2013-05-21 02:02:00,52.0,52.0,-100.00,NNE,30,1.0,3.0,100,0.00,,,0.26,0.000000,,2013-05-21 06:02:00,
2013-05-21 02:12:00,52.0,52.0,-100.00,NNE,30,1.0,3.0,100,0.00,,,0.26,0.000000,,2013-05-21 06:12:00,
2013-05-21 02:21:00,52.0,52.0,-100.00,NNE,30,1.0,3.0,100,0.00,,,0.26,0.000000,,2013-05-21 06:21:00,
2013-05-21 02:52:00,51.0,51.0,-100.00,WNW,287,1.0,5.0,100,0.00,,,0.24,0.000000,,2013-05-21 06:52:00,
2013-05-21 03:01:00,51.0,51.0,-100.00,WNW,287,1.0,5.0,100,0.00,,,0.24,0.000000,,2013-05-21 07:01:00,
2013-05-21 03:11:00,51.0,51.0,-100.00,WNW,287,1.0,5.0,100,0.00,,,0.24,0.000000,,2013-05-21 07:11:00,
2013-05-21 03:22:00,51.0,51.0,-100.00,WNW,287,1.0,5.0,100,0.00,,,0.24,0.000000,,2013-05-21 07:22:00,
2013-05-21 03:52:00,50.0,50.0,-100.00,ENE,75,2.0,3.0,100,0.00,,,0.24,0.000000,,2013-05-21 07:52:00,
2013-05-21 04:02:00,50.0,50.0,-100.00,ENE,75,2.0,3.0,100,0.00,,,0.24,0.000000,,2013-05-21 08:02:00,
2013-05-21 04:11:00,50.0,50.0,-100.00,ENE,75,2.0,3.0,100,0.00,,,0.24,0.000000,,2013-05-21 08:11:00,
2013-05-21 04:21:00,50.0,50.0,-100.00,ENE,75,2.0,3.0,100,0.00,,,0.24,0.000000,,2013-05-21 08:21:00,
2013-05-21 04:52:00,50.0,50.0,-100.00,NW,309,2.0,11.0,100,0.00,,,0.24,0.000000,,2013-05-21 08:52:00,
2013-05-21 05:01:00,50.0,50.0,-100.00,NW,309,2.0,11.0,100,0.00,,,0.24,0.000000,,2013-05-21 09:01:00,
2013-05-21 05:11:00,50.0,50.0,-100.00,NW,309,2.0,11.0,100,0.00,,,0.24,0.000000,,2013-05-21 09:11:00,
2013-05-21 05:21:00,50.0,50.0,-100.00,NW,309,2.0,11.0,100,0.00,,,0.24,0.000000,,2013-05-21 09:21:00,
2013-05-21 05:53:00,51.0,51.0,-100.00,West,260,2.0,4.0,100,0.00,,,0.24,1.000000,,2013-05-21 09:53:00,
2013-05-21 06:03:00,51.0,51.0,-100.00,West,260,2.0,4.0,100,0.00,,,0.24,1.000000,,2013-05-21 10:03:00,
2013-05-21 06:12:00,51.0,51.0,-100.00,West,260,2.0,4.0,100,0.00,,,0.24,1.000000,,2013-05-21 10:12:00,
2013-05-21 06:22:00,51.0,51.0,-100.00,West,260,2.0,4.0,100,0.00,,,0.24,1.000000,,2013-05-21 10:22:00,
2013-05-21 06:52:00,51.0,51.0,-100.00,ENE,75,2.0,5.0,100,0.10,,,0.32,4.000000,,2013-05-21 10:52:00,
2013-05-21 07:02:00,51.0,51.0,-100.00,ENE,75,2.0,5.0,100,0.10,,,0.32,4.000000,,2013-05-21 11:02:00,
2013-05-21 07:12:00,51.0,51.0,-100.00,ENE,75,2.0,5.0,100,0.10,,,0.32,4.000000,,2013-05-21 11:12:00,
2013-05-21 07:22:00,51.0,51.0,-100.00,ENE,75,2.0,5.0,100,0.10,,,0.32,4.000000,,2013-05-21 11:22:00,
2013-05-21 07:52:00,53.0,53.0,-100.00,NNW,339,1.0,5.0,100,0.06,,,0.32,27.000000,,2013-05-21 11:52:00,
2013-05-21 08:01:00,53.0,53.0,-100.00,NNW,339,1.0,5.0,100,0.06,,,0.32,27.000000,,2013-05-21 12:01:00,
2013-05-21 08:11:00,53.0,53.0,-100.00,NNW,339,1.0,5.0,100,0.06,,,0.32,27.000000,,2013-05-21 12:11:00,
2013-05-21 08:21:00,53.0,53.0,-100.00,NNW,339,1.0,5.0,100,0.06,,,0.32,27.000000,,2013-05-21 12:21:00,
2013-05-21 08:52:00,54.0,54.0,-100.00,East,80,2.0,5.0,100,0.03,,,0.33,25.000000,,2013-05-21 12:52:00,
2013-05-21 09:01:00,54.0,54.0,-100.00,East,80,2.0,5.0,100,0.03,,,0.33,25.000000,,2013-05-21 13:01:00,
2013-05-21 09:12:00,54.0,54.0,-100.00,East,80,2.0,5.0,100,0.03,,,0.33,25.000000,,2013-05-21 13:12:00,
2013-05-21 09:22:00,54.0,54.0,-100.00,East,80,2.0,5.0,100,0.03,,,0.33,25.000000,,2013-05-21 13:22:00,
2013-05-21 09:52:00,56.0,56.0,-100.00,North,6,1.0,7.0,99,0.00,,,0.23,55.000000,,2013-05-21 13:52:00,
2013-05-21 10:02:00,56.0,56.0,-100.00,North,6,1.0,7.0,99,0.00,,,0.23,55.000000,,2013-05-21 14:02:00,
2013-05-21 10:11:00,56.0,56.0,-100.00,North,6,1.0,7.0,99,0.00,,,0.23,55.000000,,2013-05-21 14:11:00,
2013-05-21 10:21:00,56.0,56.0,-100.00,North,6,1.0,7.0,99,0.00,,,0.23,55.000000,,2013-05-21 14:21:00,
2013-05-21 10:52:00,56.0,56.0,-100.00,East,86,2.0,5.0,100,0.01,,,0.22,48.000000,,2013-05-21 14:52:00,
2013-05-21 11:01:00,56.0,56.0,-100.00,East,86,2.0,5.0,100,0.01,,,0.22,48.000000,,2013-05-21 15:01:00,
2013-05-21 11:11:00,56.0,56.0,-100.00,East,86,2.0,5.0,100,0.01,,,0.22,48.000000,,2013-05-21 15:11:00,
2013-05-21 11:21:00,56.0,56.0,-100.00,East,86,2.0,5.0,100,0.01,,,0.22,48.000000,,2013-05-21 15:21:00,
2013-05-21 11:53:00,60.0,59.0,-100.00,ENE,57,2.0,7.0,96,0.01,,,0.22,177.000000,,2013-05-21 15:53:00,
2013-05-21 12:03:00,60.0,59.0,-100.00,ENE,57,2.0,7.0,96,0.01,,,0.22,177.000000,,2013-05-21 16:03:00,
2013-05-21 12:13:00,60.0,59.0,-100.00,ENE,57,2.0,7.0,96,0.01,,,0.22,177.000000,,2013-05-21 16:13:00,
2013-05-21 12:23:00,60.0,59.0,-100.00,ENE,57,2.0,7.0,96,0.01,,,0.22,177.000000,,2013-05-21 16:23:00,
2013-05-21 12:53:00,59.0,59.0,-100.00,North,349,2.0,7.0,99,0.00,,,0.21,82.000000,,2013-05-21 16:53:00,
2013-05-21 13:02:00,59.0,59.0,-100.00,North,349,2.0,7.0,99,0.00,,,0.21,82.000000,,2013-05-21 17:02:00,
2013-05-21 13:12:00,59.0,59.0,-100.00,North,349,2.0,7.0,99,0.00,,,0.21,82.000000,,2013-05-21 17:12:00,
2013-05-21 13:23:00,59.0,59.0,-100.00,North,349,2.0,7.0,99,0.00,,,0.21,82.000000,,2013-05-21 17:23:00,
2013-05-21 13:52:00,61.0,59.0,-100.00,WNW,282,2.0,3.0,93,0.01,,,0.22,172.000000,,2013-05-21 17:52:00,
2013-05-21 14:02:00,61.0,59.0,-100.00,WNW,282,2.0,3.0,93,0.01,,,0.22,172.000000,,2013-05-21 18:02:00,
2013-05-21 14:12:00,61.0,59.0,-100.00,WNW,282,2.0,3.0,93,0.01,,,0.22,172.000000,,2013-05-21 18:12:00,
2013-05-21 14:22:00,61.0,59.0,-100.00,WNW,282,2.0,3.0,93,0.01,,,0.22,172.000000,,2013-05-21 18:22:00,
2013-05-21 14:52:00,63.0,58.0,-100.00,ESE,105,3.0,6.0,84,0.00,,,0.22,373.000000,,2013-05-21 18:52:00,
2013-05-21 15:02:00,63.0,58.0,-100.00,ESE,105,3.0,6.0,84,0.00,,,0.22,373.000000,,2013-05-21 19:02:00,
2013-05-21 15:11:00,63.0,58.0,-100.00,ESE,105,3.0,6.0,84,0.00,,,0.22,373.000000,,2013-05-21 19:11:00,
2013-05-21 15:21:00,63.0,58.0,-100.00,ESE,105,3.0,6.0,84,0.00,,,0.22,373.000000,,2013-05-21 19:21:00,
2013-05-21 15:52:00,64.0,60.0,-100.00,ESE,118,4.0,11.0,86,0.00,,,0.22,301.000000,,2013-05-21 19:52:00,
2013-05-21 16:03:00,64.0,60.0,-100.00,ESE,118,4.0,11.0,86,0.00,,,0.22,301.000000,,2013-05-21 20:03:00,
2013-05-21 16:11:00,64.0,60.0,-100.00,ESE,118,4.0,11.0,86,0.00,,,0.22,301.000000,,2013-05-21 20:11:00,
2013-05-21 16:22:00,64.0,60.0,-100.00,ESE,118,4.0,11.0,86,0.00,,,0.22,301.000000,,2013-05-21 20:22:00,
2013-05-21 16:52:00,57.0,53.0,-100.00,SE,132,6.0,14.0,88,0.00,,,0.22,133.000000,,2013-05-21 20:52:00,
2013-05-21 17:02:00,57.0,53.0,-100.00,SE,132,6.0,14.0,88,0.00,,,0.22,133.000000,,2013-05-21 21:02:00,
2013-05-21 17:11:00,57.0,53.0,-100.00,SE,132,6.0,14.0,88,0.00,,,0.22,133.000000,,2013-05-21 21:11:00,
2013-05-21 17:22:00,57.0,53.0,-100.00,SE,132,6.0,14.0,88,0.00,,,0.22,133.000000,,2013-05-21 21:22:00,
2013-05-21 17:54:00,55.0,52.0,-100.00,SE,136,5.0,12.0,88,0.00,,,0.22,55.000000,,2013-05-21 21:54:00,
2013-05-21 18:02:00,55.0,52.0,-100.00,SE,136,5.0,12.0,88,0.00,,,0.22,55.000000,,2013-05-21 22:02:00,
2013-05-21 18:12:00,55.0,52.0,-100.00,SE,136,5.0,12.0,88,0.00,,,0.22,55.000000,,2013-05-21 22:12:00,
2013-05-21 18:23:00,55.0,52.0,-100.00,SE,136,5.0,12.0,88,0.00,,,0.22,55.000000,,2013-05-21 22:23:00,
2013-05-21 18:53:00,54.0,50.0,-100.00,SE,136,6.0,17.0,87,0.00,,,0.22,45.000000,,2013-05-21 22:53:00,
2013-05-21 19:02:00,54.0,50.0,-100.00,SE,136,6.0,17.0,87,0.00,,,0.22,45.000000,,2013-05-21 23:02:00,
2013-05-21 19:12:00,54.0,50.0,-100.00,SE,136,6.0,17.0,87,0.00,,,0.22,45.000000,,2013-05-21 23:12:00,
2013-05-21 19:22:00,54.0,50.0,-100.00,SE,136,6.0,17.0,87,0.00,,,0.22,45.000000,,2013-05-21 23:22:00,
2013-05-21 19:52:00,54.0,51.0,-100.00,SE,133,2.0,8.0,89,0.00,,,0.22,26.000000,,2013-05-21 23:52:00,
2013-05-21 20:01:00,54.0,51.0,-100.00,SE,133,2.0,8.0,89,0.00,,,0.22,26.000000,,2013-05-22 00:01:00,
2013-05-21 20:11:00,54.0,51.0,-100.00,SE,133,2.0,8.0,89,0.00,,,0.22,26.000000,,2013-05-22 00:11:00,
2013-05-21 20:21:00,54.0,51.0,-100.00,SE,133,2.0,8.0,89,0.00,,,0.22,26.000000,,2013-05-22 00:21:00,
2013-05-21 20:52:00,52.0,49.0,-100.00,SE,135,3.0,9.0,90,0.00,,,0.22,5.000000,,2013-05-22 00:52:00,
2013-05-21 21:01:00,52.0,49.0,-100.00,SE,135,3.0,9.0,90,0.00,,,0.22,5.000000,,2013-05-22 01:01:00,
2013-05-21 21:11:00,52.0,49.0,-100.00,SE,135,3.0,9.0,90,0.00,,,0.22,5.000000,,2013-05-22 01:11:00,
2013-05-21 21:22:00,52.0,49.0,-100.00,SE,135,3.0,9.0,90,0.00,,,0.22,5.000000,,2013-05-22 01:22:00,
2013-05-21 21:52:00,50.0,49.0,-100.00,ESE,106,2.0,8.0,98,0.12,,,0.34,0.000000,,2013-05-22 01:52:00,
2013-05-21 22:02:00,50.0,49.0,-100.00,ESE,106,2.0,8.0,98,0.12,,,0.34,0.000000,,2013-05-22 02:02:00,
2013-05-21 22:12:00,50.0,49.0,-100.00,ESE,106,2.0,8.0,98,0.12,,,0.34,0.000000,,2013-05-22 02:12:00,
2013-05-21 22:22:00,50.0,49.0,-100.00,ESE,106,2.0,8.0,98,0.12,,,0.34,0.000000,,2013-05-22 02:22:00,
2013-05-21 22:52:00,50.0,49.0,-100.00,ESE,119,5.0,16.0,98,0.66,,,1.00,0.000000,,2013-05-22 02:52:00,
2013-05-21 23:01:00,50.0,49.0,-100.00,ESE,119,5.0,16.0,98,0.66,,,1.00,0.000000,,2013-05-22 03:01:00,
2013-05-21 23:11:00,50.0,49.0,-100.00,ESE,119,5.0,16.0,98,0.66,,,1.00,0.000000,,2013-05-22 03:11:00,
2013-05-21 23:22:00,50.0,49.0,-100.00,ESE,119,5.0,16.0,98,0.66,,,1.00,0.000000,,2013-05-22 03:22:00,
2013-05-21 23:53:00,50.0,49.0,-100.00,SE,142,8.0,21.0,96,0.13,,,1.13,0.000000,,2013-05-22 03:53:00,